Weather History for Du Bois, PA

Change the Weather History Date:

Wednesday, October 16, 2013

  Actual Average Record
Temperature  
Mean Temperature 59 °F 49 °F  
Max Temperature 62 °F 59 °F 79 °F (1962)
Min Temperature 55 °F 39 °F 29 °F (1970)
Degree Days  
Heating Degree Days 6 16  
Month to date heating degree days 73 221  
Since 1 July heating degree days 276 467  
Cooling Degree Days 0 0  
Month to date cooling degree days 20 0  
Year to date cooling degree days 543 360  
Growing Degree Days 8 (Base 50)    
Moisture  
Dew Point 53 °F    
Average Humidity 74    
Maximum Humidity 86    
Minimum Humidity 62    
Precipitation  
Precipitation 0.48 in 0.09 in 0.48 in (2013)
Month to date precipitation 1.93 1.64  
Sea Level Pressure  
Sea Level Pressure 29.93 in    
Wind  
Wind Speed 7 mph (SSW)    
Max Wind Speed 16 mph    
Max Gust Speed 22 mph    
Visibility 7 miles    
Events Rain    
T = Trace of Precipitation, MM = Missing Value Source: NWS Daily Summary

Daily Weather History Graph

Daily Weather History Graph

Search for Another Location

Airport:

Trip Planner

Search our weather history database for the weather conditions in past years. The results will help you decide how hot, cold, wet, or windy it might be!

Date:

Astronomy

Oct. 16, 2013 Rise Set
Actual Time 7:28 AM EDT 6:32 PM EDT
Civil Twilight 7:00 AM EDT 7:00 PM EDT
Nautical Twilight 6:28 AM EDT 7:32 PM EDT
Astronomical Twilight 5:56 AM EDT 8:04 PM EDT
Moon 5:12 PM EDT (10/16) 4:53 AM EDT (10/16)
Length of Visible Light 11h 59m
Length of Day
11h 04m
Waxing Gibbous, 94% of the Moon is Illuminated
Oct 16
Waxing Gibbous
Oct 18
Full
Oct 26
Last Quarter
Nov 3
New
Nov 10
First Quarter

Hourly Weather History & Observations

Time (EDT) Temp. Dew Point Humidity Pressure Visibility Wind Dir Wind Speed Gust Speed Precip Events Conditions
12:56 AM 59.0 °F 46.9 °F 64% 30.01 in 10.0 mi SE 6.9 mph - N/A   Clear
1:56 AM 59.0 °F 46.9 °F 64% 30.00 in 10.0 mi SE 6.9 mph - N/A   Clear
2:56 AM 57.9 °F 46.9 °F 67% 29.99 in 10.0 mi SE 6.9 mph - N/A   Clear
3:56 AM 57.0 °F 48.0 °F 72% 29.98 in 10.0 mi SE 5.8 mph - N/A   Clear
4:56 AM 57.9 °F 46.9 °F 67% 29.97 in 10.0 mi SE 3.5 mph - N/A   Clear
5:56 AM 57.0 °F 46.9 °F 69% 29.96 in 10.0 mi Variable 3.5 mph - N/A   Overcast
6:56 AM 57.0 °F 46.9 °F 69% 29.97 in 10.0 mi Calm Calm - N/A   Overcast
7:07 AM 57.2 °F 48.2 °F 72% 29.98 in 10.0 mi Calm Calm - N/A   Overcast
7:56 AM 55.9 °F 48.9 °F 77% 29.97 in 10.0 mi SE 5.8 mph - 0.01 in   Overcast
8:56 AM 55.9 °F 50.0 °F 80% 29.98 in 9.0 mi South 4.6 mph - 0.01 in   Overcast
9:56 AM 55.9 °F 51.1 °F 84% 29.97 in 8.0 mi South 5.8 mph - 0.01 in Rain Light Rain
10:21 AM 55.4 °F 51.8 °F 88% 29.98 in 9.0 mi South 5.8 mph - 0.00 in   Overcast
10:56 AM 55.9 °F 53.1 °F 90% 29.96 in 2.5 mi South 5.8 mph - 0.01 in   Overcast
11:09 AM 55.4 °F 53.6 °F 94% 29.97 in 1.2 mi SSE 3.5 mph - 0.02 in Rain Light Rain
11:36 AM 55.4 °F 53.6 °F 94% 29.97 in 3.0 mi South 4.6 mph - 0.09 in Rain Light Rain
11:49 AM 55.4 °F 53.6 °F 94% 29.97 in 2.0 mi South 6.9 mph - 0.11 in Rain Light Rain
11:56 AM 55.9 °F 53.1 °F 90% 29.96 in 2.5 mi South 5.8 mph - 0.11 in Rain Light Rain
12:02 PM 55.4 °F 53.6 °F 94% 29.97 in 4.0 mi South 6.9 mph - 0.01 in Rain Light Rain
12:30 PM 55.4 °F 53.6 °F 94% 29.97 in 2.5 mi SW 5.8 mph - 0.02 in Rain Light Rain
12:41 PM 55.4 °F 53.6 °F 94% 29.96 in 5.0 mi SSW 5.8 mph - 0.03 in   Overcast
12:56 PM 55.9 °F 53.1 °F 90% 29.94 in 6.0 mi SSW 3.5 mph - 0.03 in   Overcast
1:13 PM 55.4 °F 53.6 °F 94% 29.95 in 5.0 mi SSW 4.6 mph - N/A   Overcast
1:56 PM 57.0 °F 54.0 °F 89% 29.93 in 5.0 mi South 5.8 mph - N/A   Overcast
2:56 PM 60.1 °F 55.9 °F 86% 29.91 in 9.0 mi South 5.8 mph - N/A   Overcast
3:31 PM 62.6 °F 57.2 °F 82% 29.91 in 10.0 mi SSW 5.8 mph - N/A   Overcast
3:56 PM 62.1 °F 57.0 °F 84% 29.89 in 10.0 mi SW 8.1 mph - N/A   Overcast
4:56 PM 62.1 °F 57.0 °F 84% 29.88 in 10.0 mi SSW 6.9 mph - N/A   Overcast
5:56 PM 62.1 °F 57.0 °F 84% 29.87 in 10.0 mi SW 6.9 mph - 0.01 in   Overcast
6:44 PM 62.6 °F 57.2 °F 82% 29.88 in 10.0 mi SW 8.1 mph - N/A   Overcast
6:56 PM 62.1 °F 55.9 °F 80% 29.86 in 10.0 mi SSW 10.4 mph - N/A   Overcast
7:42 PM 62.6 °F 57.2 °F 82% 29.88 in 10.0 mi SSW 5.8 mph - N/A   Overcast
7:56 PM 62.1 °F 57.0 °F 84% 29.87 in 10.0 mi SSW 8.1 mph - N/A   Overcast
8:56 PM 62.1 °F 57.0 °F 84% 29.87 in 10.0 mi SW 10.4 mph 18.4 mph N/A   Overcast
9:40 PM 62.6 °F 57.2 °F 82% 29.89 in 10.0 mi SW 13.8 mph 19.6 mph N/A   Overcast
9:56 PM 62.1 °F 57.0 °F 84% 29.88 in 10.0 mi SW 13.8 mph - N/A   Overcast
10:48 PM 60.8 °F 57.2 °F 88% 29.89 in 2.0 mi SW 11.5 mph - 0.04 in Rain Light Rain
10:56 PM 61.0 °F 57.9 °F 90% 29.88 in 2.0 mi SW 11.5 mph - 0.07 in Rain Light Rain
11:07 PM 60.8 °F 57.2 °F 88% 29.89 in 1.5 mi WNW 12.7 mph 20.7 mph 0.05 in Rain Light Rain
11:14 PM 60.8 °F 57.2 °F 88% 29.90 in 2.0 mi West 13.8 mph 21.9 mph 0.06 in Rain Light Rain
11:23 PM 59.0 °F 55.4 °F 88% 29.90 in 1.5 mi WNW 10.4 mph - 0.12 in Rain Light Rain
11:28 PM 59.0 °F 55.4 °F 88% 29.90 in 3.0 mi West 6.9 mph - 0.12 in Rain Light Rain
11:53 PM 55.4 °F 51.8 °F 88% 29.90 in 4.0 mi WNW 8.1 mph - 0.15 in   Overcast
11:56 PM 55.9 °F 53.1 °F 90% 29.90 in 5.0 mi WNW 8.1 mph - 0.15 in   Overcast